| time (UTC) | temp F | wind direction | speed knots | gust knots | rain 1hr in | rain 24hr in | rain mn in | humidity % | barometer mb |
| 20260831034005 | 72 | 290 | 1.7 | 3.5 | 0.00 | 0.00 | 0.00 | 77 | 1013.9 |
| 20260831033500 | 72 | 325 | 0.0 | 0.9 | 0.00 | 0.00 | 0.00 | 77 | 1013.9 |
| 20260831032956 | 72 | 164 | 1.7 | 2.6 | 0.00 | 0.00 | 0.00 | 77 | 1013.6 |
| 20260831032455 | 72 | 304 | 0.9 | 1.7 | 0.00 | 0.00 | 0.00 | 77 | 1013.6 |
| 20260831031950 | 72 | 339 | 0.0 | 1.7 | 0.00 | 0.00 | 0.00 | 77 | 1013.6 |
| 20260831031450 | 72 | 314 | 0.9 | 2.6 | 0.00 | 0.00 | 0.00 | 78 | 1013.2 |
| 20260831030949 | 72 | 320 | 0.9 | 1.7 | 0.00 | 0.00 | 0.00 | 78 | 1013.6 |
| 20260831030449 | 72 | 267 | 1.7 | 2.6 | 0.00 | 0.00 | 0.00 | 78 | 1013.2 |
| 20260831025947 | 72 | 240 | 1.7 | 2.6 | 0.00 | 0.00 | 0.00 | 78 | 1013.2 |
| 20260831025446 | 72 | 248 | 1.7 | 3.5 | 0.00 | 0.00 | 0.00 | 78 | 1013.2 |
| 20260831024942 | 72 | 292 | 1.7 | 5.2 | 0.00 | 0.00 | 0.00 | 78 | 1013.6 |
| 20260831024442 | 72 | 253 | 1.7 | 2.6 | 0.00 | 0.00 | 0.00 | 78 | 1013.6 |
| 20260831023937 | 73 | 239 | 2.6 | 3.5 | 0.00 | 0.00 | 0.00 | 77 | 1013.2 |
| 20260831023435 | 73 | 272 | 1.7 | 1.7 | 0.00 | 0.00 | 0.00 | 77 | 1013.2 |
| 20260831022930 | 73 | 324 | 0.0 | 1.7 | 0.00 | 0.00 | 0.00 | 77 | 1013.2 |
| 20260831022429 | 73 | 259 | 1.7 | 1.7 | 0.00 | 0.00 | 0.00 | 77 | 1013.2 |
| 20260831021924 | 73 | 195 | 0.9 | 1.7 | 0.00 | 0.00 | 0.00 | 77 | 1013.2 |
| 20260831021424 | 73 | 343 | 0.0 | 0.9 | 0.00 | 0.00 | 0.00 | 77 | 1013.2 |
| 20260831020920 | 73 | 288 | 0.9 | 1.7 | 0.00 | 0.00 | 0.00 | 77 | 1013.2 |
| 20260831020419 | 74 | 340 | 1.7 | 3.5 | 0.00 | 0.00 | 0.00 | 76 | 1013.2 |
| 20260831015914 | 74 | 303 | 1.7 | 2.6 | 0.00 | 0.00 | 0.00 | 75 | 1013.2 |
| 20260831015410 | 74 | 274 | 1.7 | 1.7 | 0.00 | 0.00 | 0.00 | 75 | 1012.9 |
| 20260831014910 | 74 | 339 | 0.9 | 2.6 | 0.00 | 0.00 | 0.00 | 74 | 1012.9 |
| 20260831014405 | 74 | 222 | 3.5 | 3.5 | 0.00 | 0.00 | 0.00 | 74 | 1012.9 |
| 20260831013901 | 75 | 340 | 0.9 | 1.7 | 0.00 | 0.00 | 0.00 | 75 | 1013.2 |
| 20260831013356 | 75 | 294 | 0.9 | 1.7 | 0.00 | 0.00 | 0.00 | 74 | 1013.2 |
| 20260831012850 | 75 | 338 | 0.0 | 0.9 | 0.00 | 0.00 | 0.00 | 75 | 1013.2 |
| 20260831012345 | 75 | 323 | 0.9 | 2.6 | 0.00 | 0.00 | 0.00 | 75 | 1012.9 |
| 20260831011840 | 75 | 327 | 1.7 | 2.6 | 0.00 | 0.00 | 0.00 | 75 | 1013.2 |
| 20260831011335 | 76 | 233 | 3.5 | 3.5 | 0.00 | 0.00 | 0.00 | 75 | 1012.9 |
| 20260831010831 | 76 | 344 | 0.9 | 1.7 | 0.00 | 0.00 | 0.00 | 75 | 1013.2 |
| 20260831010330 | 75 | 343 | 0.0 | 0.9 | 0.00 | 0.00 | 0.00 | 76 | 1013.2 |
| 20260831005826 | 75 | 314 | 0.9 | 2.6 | 0.00 | 0.00 | 0.00 | 76 | 1013.2 |
| 20260831005321 | 75 | 281 | 2.6 | 5.2 | 0.00 | 0.00 | 0.00 | 76 | 1013.2 |
| 20260831004816 | 76 | 309 | 1.7 | 2.6 | 0.00 | 0.00 | 0.00 | 76 | 1013.2 |
| 20260831004312 | 76 | 236 | 1.7 | 3.5 | 0.00 | 0.00 | 0.00 | 77 | 1013.2 |
| 20260831003808 | 77 | 354 | 3.5 | 6.1 | 0.00 | 0.00 | 0.00 | 75 | 1013.2 |
| 20260831003304 | 77 | 347 | 1.7 | 2.6 | 0.00 | 0.00 | 0.00 | 73 | 1012.9 |
| 20260831002803 | 77 | 333 | 0.0 | 2.6 | 0.00 | 0.00 | 0.00 | 76 | 1013.2 |
| 20260831002305 | 76 | 300 | 1.7 | 5.2 | 0.00 | 0.00 | 0.00 | 77 | 1013.2 |
| 20260831001758 | 77 | 259 | 3.5 | 6.1 | 0.00 | 0.00 | 0.00 | 75 | 1013.2 |
| 20260831001253 | 78 | 228 | 3.5 | 5.2 | 0.00 | 0.00 | 0.00 | 73 | 1013.2 |
| 20260831000751 | 78 | 329 | 1.7 | 2.6 | 0.00 | 0.00 | 0.00 | 73 | 1013.2 |
| 20260831000250 | 77 | 321 | 1.7 | 6.1 | 0.00 | 0.00 | 0.00 | 76 | 1013.2 |
| 20260830235749 | 77 | 105 | 2.6 | 5.2 | 0.00 | 0.00 | 0.00 | 76 | 1013.2 |
| 20260830235244 | 77 | 268 | 3.5 | 3.5 | 0.00 | 0.00 | 0.00 | 75 | 1013.2 |
| 20260830234739 | 77 | 282 | 1.7 | 3.5 | 0.00 | 0.00 | 0.00 | 75 | 1013.2 |
| 20260830234235 | 79 | 282 | 1.7 | 3.5 | 0.00 | 0.00 | 0.00 | 73 | 1013.2 |
| 20260830233731 | 79 | 341 | 0.0 | 1.7 | 0.00 | 0.00 | 0.00 | 73 | 1013.2 |
| 20260830233226 | 79 | 216 | 3.5 | 5.2 | 0.00 | 0.00 | 0.00 | 72 | 1012.9 |
| 20260830232721 | 80 | 246 | 3.5 | 6.1 | 0.00 | 0.00 | 0.00 | 71 | 1013.2 |
| 20260830232217 | 80 | 321 | 0.9 | 3.5 | 0.00 | 0.00 | 0.00 | 72 | 1013.2 |
| 20260830231714 | 81 | 320 | 1.7 | 2.6 | 0.00 | 0.00 | 0.00 | 70 | 1013.2 |
| 20260830231213 | 81 | 306 | 3.5 | 6.1 | 0.00 | 0.00 | 0.00 | 71 | 1013.2 |
| 20260830230708 | 81 | 332 | 1.7 | 7.0 | 0.00 | 0.00 | 0.00 | 71 | 1013.2 |
| 20260830230203 | 81 | 264 | 3.5 | 3.5 | 0.00 | 0.00 | 0.00 | 70 | 1013.2 |
| 20260830225657 | 81 | 245 | 0.9 | 1.7 | 0.00 | 0.00 | 0.00 | 70 | 1013.2 |
| 20260830225152 | 81 | 179 | 2.6 | 6.1 | 0.00 | 0.00 | 0.00 | 70 | 1013.2 |
| 20260830224650 | 81 | 272 | 2.6 | 5.2 | 0.00 | 0.00 | 0.00 | 70 | 1013.2 |
| 20260830224147 | 81 | 342 | 2.6 | 5.2 | 0.00 | 0.00 | 0.00 | 70 | 1013.6 |
| 20260830223643 | 81 | 276 | 1.7 | 7.0 | 0.00 | 0.00 | 0.00 | 71 | 1013.6 |
| 20260830223138 | 82 | 294 | 1.7 | 5.2 | 0.00 | 0.00 | 0.00 | 71 | 1013.9 |
| 20260830222632 | 82 | 12 | 0.9 | 6.1 | 0.00 | 0.00 | 0.00 | 71 | 1013.6 |
| 20260830222129 | 82 | 178 | 1.7 | 6.1 | 0.00 | 0.00 | 0.00 | 70 | 1013.6 |
| 20260830221624 | 84 | 314 | 0.9 | 2.6 | 0.00 | 0.00 | 0.00 | 67 | 1013.9 |
| 20260830221120 | 82 | 181 | 0.9 | 6.1 | 0.00 | 0.00 | 0.00 | 71 | 1013.9 |
| 20260830220615 | 82 | 267 | 2.6 | 7.0 | 0.00 | 0.00 | 0.00 | 71 | 1013.9 |
| 20260830220114 | 82 | 243 | 4.3 | 6.1 | 0.00 | 0.00 | 0.00 | 69 | 1013.9 |
| 20260830215613 | 82 | 256 | 1.7 | 2.6 | 0.00 | 0.00 | 0.00 | 70 | 1013.9 |
| 20260830215108 | 82 | 264 | 1.7 | 3.5 | 0.00 | 0.00 | 0.00 | 69 | 1014.3 |
| 20260830214603 | 83 | 285 | 1.7 | 3.5 | 0.00 | 0.00 | 0.00 | 69 | 1014.3 |
| 20260830214058 | 81 | 317 | 0.9 | 6.1 | 0.00 | 0.00 | 0.00 | 72 | 1014.3 |
| 20260830213557 | 83 | 269 | 2.6 | 7.0 | 0.00 | 0.00 | 0.00 | 69 | 1014.3 |
| 20260830213053 | 82 | 217 | 2.6 | 6.1 | 0.00 | 0.00 | 0.00 | 70 | 1014.3 |
| 20260830212549 | 82 | 276 | 3.5 | 5.2 | 0.00 | 0.00 | 0.00 | 68 | 1014.3 |
| 20260830212048 | 83 | 279 | 1.7 | 7.8 | 0.00 | 0.00 | 0.00 | 69 | 1014.6 |
| 20260830211543 | 82 | 217 | 2.6 | 5.2 | 0.00 | 0.00 | 0.00 | 68 | 1014.6 |
| 20260830211038 | 82 | 249 | 3.5 | 6.1 | 0.00 | 0.00 | 0.00 | 69 | 1014.6 |
| 20260830210533 | 83 | 303 | 2.6 | 5.2 | 0.00 | 0.00 | 0.00 | 68 | 1014.6 |
| 20260830210032 | 83 | 283 | 3.5 | 7.0 | 0.00 | 0.00 | 0.00 | 67 | 1014.6 |
| 20260830205530 | 82 | 258 | 3.5 | 6.1 | 0.00 | 0.00 | 0.00 | 68 | 1014.6 |
| 20260830205026 | 82 | 298 | 2.6 | 5.2 | 0.00 | 0.00 | 0.00 | 67 | 1014.9 |
| 20260830204525 | 82 | 264 | 3.5 | 5.2 | 0.00 | 0.00 | 0.00 | 67 | 1014.6 |
| 20260830204024 | 82 | 242 | 4.3 | 7.8 | 0.00 | 0.00 | 0.00 | 68 | 1014.6 |
| 20260830203521 | 83 | 259 | 1.7 | 6.1 | 0.00 | 0.00 | 0.00 | 67 | 1014.9 |
| 20260830203016 | 82 | 352 | 0.9 | 3.5 | 0.00 | 0.00 | 0.00 | 69 | 1014.9 |
| 20260830202515 | 82 | 198 | 1.7 | 6.1 | 0.00 | 0.00 | 0.00 | 67 | 1014.9 |
| 20260830202012 | 83 | 242 | 3.5 | 5.2 | 0.00 | 0.00 | 0.00 | 67 | 1014.6 |
| 20260830201510 | 84 | 327 | 1.7 | 3.5 | 0.00 | 0.00 | 0.00 | 67 | 1014.6 |
| 20260830201006 | 82 | 209 | 3.5 | 5.2 | 0.00 | 0.00 | 0.00 | 67 | 1014.6 |
| 20260830200506 | 83 | 245 | 3.5 | 5.2 | 0.00 | 0.00 | 0.00 | 66 | 1014.6 |
| 20260830200005 | 82 | 288 | 2.6 | 5.2 | 0.00 | 0.00 | 0.00 | 66 | 1014.6 |
| 20260830195501 | 82 | 254 | 3.5 | 7.0 | 0.00 | 0.00 | 0.00 | 66 | 1014.9 |
| 20260830194959 | 83 | 286 | 2.6 | 6.1 | 0.00 | 0.00 | 0.00 | 65 | 1014.9 |
| 20260830194459 | 83 | 243 | 1.7 | 5.2 | 0.00 | 0.00 | 0.00 | 65 | 1014.6 |
| 20260830193953 | 83 | 189 | 4.3 | 6.1 | 0.00 | 0.00 | 0.00 | 66 | 1014.9 |
| 20260830193453 | 82 | 295 | 3.5 | 5.2 | 0.00 | 0.00 | 0.00 | 67 | 1014.9 |
| 20260830192948 | 82 | 201 | 2.6 | 6.1 | 0.00 | 0.00 | 0.00 | 68 | 1014.9 |
| 20260830192443 | 83 | 245 | 3.5 | 5.2 | 0.00 | 0.00 | 0.00 | 65 | 1014.9 |
| 20260830191938 | 83 | 327 | 0.0 | 6.1 | 0.00 | 0.00 | 0.00 | 65 | 1014.9 |
| 20260830191438 | 83 | 254 | 1.7 | 5.2 | 0.00 | 0.00 | 0.00 | 64 | 1014.9 |
| 20260830190934 | 84 | 236 | 1.7 | 5.2 | 0.00 | 0.00 | 0.00 | 64 | 1015.3 |
| 20260830190429 | 84 | 271 | 0.9 | 6.1 | 0.00 | 0.00 | 0.00 | 64 | 1014.9 |
| 20260830185928 | 83 | 301 | 4.3 | 5.2 | 0.00 | 0.00 | 0.00 | 62 | 1014.9 |
| 20260830185423 | 83 | 308 | 0.0 | 2.6 | 0.00 | 0.00 | 0.00 | 62 | 1014.9 |
| 20260830184919 | 84 | 258 | 4.3 | 6.1 | 0.00 | 0.00 | 0.00 | 62 | 1014.9 |
| 20260830184418 | 84 | 288 | 3.5 | 6.1 | 0.00 | 0.00 | 0.00 | 62 | 1014.9 |
| 20260830183917 | 84 | 246 | 1.7 | 3.5 | 0.00 | 0.00 | 0.00 | 63 | 1014.9 |
| 20260830183412 | 84 | 256 | 2.6 | 3.5 | 0.00 | 0.00 | 0.00 | 62 | 1014.9 |
| 20260830182908 | 84 | 237 | 1.7 | 5.2 | 0.00 | 0.00 | 0.00 | 62 | 1014.9 |
| 20260830182403 | 83 | 274 | 2.6 | 3.5 | 0.00 | 0.00 | 0.00 | 63 | 1014.9 |
| 20260830181859 | 83 | 282 | 2.6 | 2.6 | 0.00 | 0.00 | 0.00 | 62 | 1014.9 |
| 20260830181354 | 83 | 312 | 2.6 | 6.1 | 0.00 | 0.00 | 0.00 | 63 | 1015.3 |
| 20260830180849 | 84 | 303 | 3.5 | 3.5 | 0.00 | 0.00 | 0.00 | 62 | 1014.9 |
| 20260830180343 | 84 | 295 | 0.9 | 3.5 | 0.00 | 0.00 | 0.00 | 63 | 1014.9 |
| 20260830175842 | 84 | 280 | 1.7 | 6.1 | 0.00 | 0.00 | 0.00 | 63 | 1014.9 |
| 20260830175337 | 84 | 190 | 1.7 | 5.2 | 0.00 | 0.00 | 0.00 | 64 | 1015.3 |
| 20260830174832 | 85 | 320 | 2.6 | 5.2 | 0.00 | 0.00 | 0.00 | 62 | 1015.3 |
| 20260830174327 | 86 | 258 | 0.0 | 2.6 | 0.00 | 0.00 | 0.00 | 58 | 1014.9 |
| 20260830173827 | 86 | 343 | 0.9 | 2.6 | 0.00 | 0.00 | 0.00 | 58 | 1014.9 |
| 20260830173322 | 86 | 81 | 1.7 | 1.7 | 0.00 | 0.00 | 0.00 | 56 | 1014.9 |
| 20260830172819 | 85 | 41 | 0.9 | 1.7 | 0.00 | 0.00 | 0.00 | 57 | 1014.9 |
| 20260830172315 | 84 | 308 | 0.9 | 1.7 | 0.00 | 0.00 | 0.00 | 58 | 1014.9 |
| 20260830171811 | 85 | 301 | 0.9 | 1.7 | 0.00 | 0.00 | 0.00 | 56 | 1014.9 |
| 20260830171306 | 85 | 46 | 0.9 | 1.7 | 0.00 | 0.00 | 0.00 | 54 | 1014.9 |
| 20260830170801 | 85 | 46 | 0.9 | 1.7 | 0.00 | 0.00 | 0.00 | 57 | 1014.6 |
| 20260830170300 | 84 | 356 | 0.0 | 1.7 | 0.00 | 0.00 | 0.00 | 59 | 1014.9 |
| 20260830165759 | 83 | 359 | 0.9 | 1.7 | 0.00 | 0.00 | 0.00 | 60 | 1014.6 |
| 20260830165255 | 83 | 33 | 0.9 | 1.7 | 0.00 | 0.00 | 0.00 | 60 | 1014.9 |
| 20260830164751 | 84 | 354 | 0.0 | 1.7 | 0.00 | 0.00 | 0.00 | 59 | 1014.6 |
| 20260830164247 | 84 | 216 | 0.9 | 1.7 | 0.00 | 0.00 | 0.00 | 58 | 1014.9 |
| 20260830163743 | 84 | 347 | 0.0 | 1.7 | 0.00 | 0.00 | 0.00 | 59 | 1014.9 |
| 20260830163239 | 84 | 12 | 0.9 | 1.7 | 0.00 | 0.00 | 0.00 | 58 | 1014.9 |
| 20260830162733 | 84 | 340 | 0.0 | 2.6 | 0.00 | 0.00 | 0.00 | 60 | 1014.9 |
| 20260830162229 | 84 | 70 | 1.7 | 2.6 | 0.00 | 0.00 | 0.00 | 60 | 1014.9 |
| 20260830161725 | 83 | 348 | 0.0 | 1.7 | 0.00 | 0.00 | 0.00 | 63 | 1014.9 |
| 20260830161219 | 82 | 353 | 0.9 | 3.5 | 0.00 | 0.00 | 0.00 | 65 | 1014.9 |
| 20260830160715 | 82 | 19 | 0.0 | 0.0 | 0.00 | 0.00 | 0.00 | 65 | 1014.9 |
| 20260830160215 | 82 | 356 | 1.7 | 1.7 | 0.00 | 0.00 | 0.00 | 65 | 1014.9 |
| 20260830155711 | 81 | 350 | 0.0 | 1.7 | 0.00 | 0.00 | 0.00 | 67 | 1014.9 |
| 20260830155207 | 81 | 16 | 0.0 | 0.9 | 0.00 | 0.00 | 0.00 | 67 | 1014.9 |
| 20260830154702 | 80 | 20 | 0.0 | 2.6 | 0.00 | 0.00 | 0.00 | 69 | 1014.9 |
| 20260830154157 | 79 | 346 | 0.0 | 1.7 | 0.00 | 0.00 | 0.00 | 70 | 1014.9 |
| 20260830153654 | 80 | 48 | 1.7 | 2.6 | 0.00 | 0.00 | 0.00 | 70 | 1014.9 |
| 20260830153154 | 79 | 359 | 0.0 | 0.9 | 0.00 | 0.00 | 0.00 | 70 | 1014.9 |
| 20260830152653 | 80 | 30 | 1.7 | 1.7 | 0.00 | 0.00 | 0.00 | 70 | 1014.9 |
| 20260830152152 | 79 | 349 | 0.9 | 1.7 | 0.00 | 0.00 | 0.00 | 71 | 1015.3 |
| 20260830151648 | 78 | 338 | 0.9 | 2.6 | 0.00 | 0.00 | 0.00 | 73 | 1015.3 |
| 20260830151147 | 78 | 344 | 1.7 | 1.7 | 0.00 | 0.00 | 0.00 | 74 | 1014.9 |
| 20260830150642 | 78 | 37 | 0.9 | 2.6 | 0.00 | 0.00 | 0.00 | 74 | 1015.3 |
| 20260830150136 | 78 | 37 | 0.9 | 0.9 | 0.00 | 0.00 | 0.00 | 73 | 1015.3 |
| 20260830145636 | 78 | 351 | 0.9 | 1.7 | 0.00 | 0.00 | 0.00 | 75 | 1014.9 |
| 20260830145131 | 76 | 359 | 0.9 | 0.9 | 0.00 | 0.00 | 0.00 | 77 | 1014.9 |
| 20260830144626 | 75 | 351 | 0.0 | 0.9 | 0.00 | 0.00 | 0.00 | 79 | 1014.9 |
| 20260830144122 | 74 | 357 | 0.9 | 0.9 | 0.00 | 0.00 | 0.00 | 83 | 1015.3 |
| 20260830143618 | 73 | 340 | 0.0 | 0.9 | 0.00 | 0.00 | 0.00 | 87 | 1014.9 |
| 20260830143116 | 72 | 350 | 0.0 | 0.9 | 0.00 | 0.00 | 0.00 | 90 | 1014.9 |
| 20260830142612 | 71 | 342 | 0.0 | 0.0 | 0.00 | 0.00 | 0.00 | 92 | 1014.9 |
| 20260830142106 | 71 | 347 | 0.0 | 0.0 | 0.00 | 0.00 | 0.00 | 92 | 1014.9 |
| 20260830141602 | 70 | 342 | 0.0 | 0.0 | 0.00 | 0.00 | 0.00 | 92 | 1014.9 |
| 20260830141057 | 70 | 346 | 0.0 | 0.0 | 0.00 | 0.00 | 0.00 | 92 | 1014.9 |
| 20260830140551 | 69 | 340 | 0.0 | 0.0 | 0.00 | 0.00 | 0.00 | 92 | 1014.9 |
| 20260830140047 | 69 | 339 | 0.0 | 0.0 | 0.00 | 0.00 | 0.00 | 92 | 1014.6 |
| 20260830135541 | 69 | 342 | 0.0 | 0.0 | 0.00 | 0.00 | 0.00 | 92 | 1014.6 |
| 20260830135036 | 69 | 338 | 0.0 | 0.0 | 0.00 | 0.00 | 0.00 | 92 | 1014.6 |
| 20260830134533 | 69 | 346 | 0.0 | 0.0 | 0.00 | 0.00 | 0.00 | 91 | 1014.6 |
| 20260830134027 | 69 | 345 | 0.0 | 0.0 | 0.00 | 0.00 | 0.00 | 91 | 1014.6 |
| 20260830133523 | 69 | 348 | 0.0 | 0.0 | 0.00 | 0.00 | 0.00 | 91 | 1014.3 |
| 20260830133018 | 69 | 339 | 0.0 | 0.0 | 0.00 | 0.00 | 0.00 | 91 | 1014.3 |
| 20260830132514 | 69 | 335 | 0.0 | 0.0 | 0.00 | 0.00 | 0.00 | 91 | 1014.3 |
| 20260830132014 | 69 | 339 | 0.0 | 0.0 | 0.00 | 0.00 | 0.00 | 91 | 1014.3 |
| 20260830131513 | 69 | 338 | 0.0 | 0.0 | 0.00 | 0.00 | 0.00 | 91 | 1014.3 |
| 20260830131008 | 69 | 339 | 0.0 | 0.0 | 0.00 | 0.00 | 0.00 | 91 | 1014.3 |
| 20260830130503 | 69 | 336 | 0.0 | 0.0 | 0.00 | 0.00 | 0.00 | 91 | 1014.3 |
| 20260830130003 | 69 | 340 | 0.0 | 0.0 | 0.00 | 0.00 | 0.00 | 91 | 1014.3 |
| 20260830125458 | 69 | 340 | 0.0 | 0.0 | 0.00 | 0.00 | 0.00 | 91 | 1014.3 |
| 20260830124956 | 70 | 340 | 0.0 | 0.0 | 0.00 | 0.00 | 0.00 | 91 | 1014.3 |
| 20260830124451 | 70 | 336 | 0.0 | 0.0 | 0.00 | 0.00 | 0.00 | 91 | 1013.9 |
| 20260830123947 | 69 | 339 | 0.0 | 0.0 | 0.00 | 0.00 | 0.00 | 90 | 1013.9 |
| 20260830123444 | 69 | 343 | 0.0 | 0.0 | 0.00 | 0.00 | 0.00 | 90 | 1013.9 |
| 20260830122942 | 69 | 343 | 0.0 | 0.0 | 0.00 | 0.00 | 0.00 | 90 | 1013.9 |
| 20260830122441 | 70 | 344 | 0.0 | 0.0 | 0.00 | 0.00 | 0.00 | 90 | 1014.3 |
| 20260830121936 | 70 | 338 | 0.0 | 0.0 | 0.00 | 0.00 | 0.00 | 90 | 1014.3 |
| 20260830121431 | 70 | 336 | 0.0 | 0.0 | 0.00 | 0.00 | 0.00 | 90 | 1013.9 |
| 20260830120926 | 70 | 338 | 0.0 | 0.0 | 0.00 | 0.00 | 0.00 | 90 | 1013.9 |
| 20260830120421 | 70 | 338 | 0.0 | 0.0 | 0.00 | 0.00 | 0.00 | 90 | 1013.9 |
| 20260830115918 | 70 | 338 | 0.0 | 0.0 | 0.00 | 0.00 | 0.00 | 90 | 1013.9 |
| 20260830115414 | 70 | 336 | 0.0 | 0.0 | 0.00 | 0.00 | 0.00 | 90 | 1013.9 |
| 20260830114909 | 70 | 336 | 0.0 | 0.0 | 0.00 | 0.00 | 0.00 | 90 | 1013.9 |
| 20260830114406 | 70 | 342 | 0.0 | 0.0 | 0.00 | 0.00 | 0.00 | 89 | 1013.6 |
| 20260830113905 | 70 | 342 | 0.0 | 0.0 | 0.00 | 0.00 | 0.00 | 89 | 1013.6 |
| 20260830113401 | 70 | 338 | 0.0 | 0.0 | 0.00 | 0.00 | 0.00 | 89 | 1013.6 |
| 20260830112856 | 70 | 338 | 0.0 | 0.0 | 0.00 | 0.00 | 0.00 | 89 | 1013.9 |
| 20260830112352 | 70 | 341 | 0.0 | 0.0 | 0.00 | 0.00 | 0.00 | 89 | 1013.6 |
| 20260830111848 | 71 | 341 | 0.0 | 0.0 | 0.00 | 0.00 | 0.00 | 89 | 1013.6 |
| 20260830111343 | 71 | 336 | 0.0 | 0.0 | 0.00 | 0.00 | 0.00 | 89 | 1013.6 |
| 20260830110843 | 71 | 339 | 0.0 | 0.0 | 0.00 | 0.00 | 0.00 | 89 | 1013.9 |
| 20260830110340 | 71 | 339 | 0.0 | 0.0 | 0.00 | 0.00 | 0.00 | 89 | 1013.9 |
| 20260830105838 | 71 | 338 | 0.0 | 0.0 | 0.00 | 0.00 | 0.00 | 89 | 1013.9 |
| 20260830105335 | 71 | 336 | 0.0 | 0.0 | 0.00 | 0.00 | 0.00 | 89 | 1013.6 |
| 20260830104831 | 71 | 338 | 0.0 | 0.0 | 0.00 | 0.00 | 0.00 | 89 | 1013.6 |
| 20260830104328 | 71 | 339 | 0.0 | 0.0 | 0.00 | 0.00 | 0.00 | 88 | 1013.9 |
| 20260830103826 | 71 | 341 | 0.0 | 0.0 | 0.00 | 0.00 | 0.00 | 88 | 1013.9 |
| 20260830103323 | 71 | 345 | 0.0 | 0.0 | 0.00 | 0.00 | 0.00 | 88 | 1013.6 |
| 20260830102821 | 71 | 336 | 0.0 | 0.0 | 0.00 | 0.00 | 0.00 | 89 | 1013.9 |
| 20260830102317 | 71 | 338 | 0.0 | 0.0 | 0.00 | 0.00 | 0.00 | 89 | 1013.6 |
| 20260830101812 | 71 | 339 | 0.0 | 0.0 | 0.00 | 0.00 | 0.00 | 89 | 1013.9 |
| 20260830101308 | 71 | 300 | 0.0 | 0.9 | 0.00 | 0.00 | 0.00 | 89 | 1013.9 |
| 20260830100807 | 71 | 297 | 0.0 | 0.9 | 0.00 | 0.00 | 0.00 | 90 | 1013.9 |
| 20260830100301 | 71 | 339 | 0.0 | 0.0 | 0.00 | 0.00 | 0.00 | 90 | 1013.6 |
| 20260830095800 | 71 | 334 | 0.0 | 0.9 | 0.00 | 0.00 | 0.00 | 90 | 1013.6 |
| 20260830095257 | 71 | 338 | 0.0 | 0.9 | 0.00 | 0.00 | 0.00 | 90 | 1013.6 |
| 20260830094752 | 71 | 345 | 0.0 | 1.7 | 0.00 | 0.00 | 0.00 | 90 | 1013.9 |
| 20260830094248 | 71 | 336 | 0.0 | 0.0 | 0.00 | 0.00 | 0.00 | 90 | 1013.6 |
| 20260830093743 | 71 | 338 | 0.0 | 0.0 | 0.00 | 0.00 | 0.00 | 90 | 1013.6 |
| 20260830093239 | 71 | 340 | 0.0 | 0.0 | 0.00 | 0.00 | 0.00 | 89 | 1013.6 |
| 20260830092738 | 71 | 341 | 0.0 | 0.0 | 0.00 | 0.00 | 0.00 | 89 | 1013.6 |
| 20260830092236 | 71 | 337 | 0.0 | 0.0 | 0.00 | 0.00 | 0.00 | 89 | 1013.9 |
| 20260830091732 | 71 | 328 | 0.0 | 0.0 | 0.00 | 0.00 | 0.00 | 89 | 1013.6 |
| 20260830091231 | 71 | 342 | 0.0 | 0.0 | 0.00 | 0.00 | 0.00 | 89 | 1013.9 |
| 20260830090730 | 71 | 338 | 0.0 | 0.0 | 0.00 | 0.00 | 0.00 | 88 | 1013.9 |
| 20260830090226 | 71 | 339 | 0.0 | 0.0 | 0.00 | 0.00 | 0.00 | 88 | 1013.6 |
| 20260830085725 | 71 | 338 | 0.0 | 0.0 | 0.00 | 0.00 | 0.00 | 88 | 1013.6 |
| 20260830085221 | 71 | 342 | 0.0 | 0.0 | 0.00 | 0.00 | 0.00 | 88 | 1013.6 |
| 20260830084716 | 71 | 334 | 0.0 | 0.0 | 0.00 | 0.00 | 0.00 | 88 | 1013.9 |
| 20260830084212 | 72 | 349 | 0.0 | 0.0 | 0.00 | 0.00 | 0.00 | 87 | 1013.6 |
| 20260830083707 | 72 | 342 | 0.0 | 0.0 | 0.00 | 0.00 | 0.00 | 87 | 1013.6 |
| 20260830083202 | 72 | 348 | 0.0 | 0.0 | 0.00 | 0.00 | 0.00 | 87 | 1013.6 |
| 20260830082701 | 72 | 351 | 0.0 | 0.0 | 0.00 | 0.00 | 0.00 | 87 | 1013.6 |
| 20260830082157 | 72 | 347 | 0.0 | 0.0 | 0.00 | 0.00 | 0.00 | 87 | 1013.6 |
| 20260830081653 | 72 | 343 | 0.0 | 0.0 | 0.00 | 0.00 | 0.00 | 86 | 1013.6 |
| 20260830081152 | 72 | 342 | 0.0 | 0.0 | 0.00 | 0.00 | 0.00 | 86 | 1013.6 |
| 20260830080647 | 72 | 335 | 0.0 | 0.0 | 0.00 | 0.00 | 0.00 | 86 | 1013.9 |
| 20260830080143 | 72 | 322 | 0.0 | 0.0 | 0.00 | 0.00 | 0.00 | 86 | 1013.6 |
| 20260830075642 | 72 | 351 | 0.0 | 0.0 | 0.00 | 0.00 | 0.00 | 85 | 1013.9 |
| 20260830075137 | 72 | 338 | 0.0 | 0.0 | 0.00 | 0.00 | 0.00 | 85 | 1013.6 |
| 20260830074633 | 72 | 340 | 0.0 | 0.0 | 0.00 | 0.00 | 0.00 | 85 | 1013.9 |
| 20260830074129 | 72 | 344 | 0.0 | 0.9 | 0.00 | 0.00 | 0.00 | 84 | 1013.6 |
| 20260830073625 | 72 | 341 | 0.0 | 0.9 | 0.00 | 0.00 | 0.00 | 84 | 1013.6 |
| 20260830073120 | 72 | 336 | 0.0 | 0.0 | 0.00 | 0.00 | 0.00 | 84 | 1013.6 |
| 20260830072615 | 72 | 320 | 0.0 | 0.9 | 0.00 | 0.00 | 0.00 | 84 | 1013.6 |
| 20260830072115 | 72 | 341 | 0.0 | 2.6 | 0.00 | 0.00 | 0.00 | 84 | 1013.9 |
| 20260830071610 | 72 | 291 | 0.0 | 0.9 | 0.00 | 0.00 | 0.00 | 83 | 1013.9 |
| 20260830071108 | 72 | 343 | 0.0 | 0.0 | 0.00 | 0.00 | 0.00 | 83 | 1013.9 |
| 20260830070603 | 72 | 344 | 0.0 | 0.0 | 0.00 | 0.00 | 0.00 | 83 | 1013.9 |
| 20260830070058 | 72 | 336 | 0.0 | 0.0 | 0.00 | 0.00 | 0.00 | 83 | 1013.6 |
| 20260830065557 | 72 | 340 | 0.0 | 0.0 | 0.00 | 0.00 | 0.00 | 83 | 1013.6 |
| 20260830065055 | 72 | 333 | 0.0 | 0.0 | 0.00 | 0.00 | 0.00 | 82 | 1013.9 |
| 20260830064550 | 72 | 341 | 0.0 | 0.0 | 0.00 | 0.00 | 0.00 | 82 | 1013.6 |
| 20260830064045 | 72 | 342 | 0.0 | 0.0 | 0.00 | 0.00 | 0.00 | 82 | 1013.2 |
| 20260830063539 | 72 | 341 | 0.0 | 0.9 | 0.00 | 0.00 | 0.00 | 82 | 1013.2 |
| 20260830063039 | 71 | 349 | 0.0 | 1.7 | 0.00 | 0.00 | 0.00 | 83 | 1013.2 |
| 20260830062539 | 71 | 341 | 0.0 | 0.0 | 0.00 | 0.00 | 0.00 | 83 | 1013.6 |
| 20260830062033 | 72 | 336 | 0.0 | 0.0 | 0.00 | 0.00 | 0.00 | 83 | 1013.2 |
| 20260830061528 | 72 | 326 | 0.0 | 0.0 | 0.00 | 0.00 | 0.00 | 84 | 1013.2 |
| 20260830061025 | 72 | 339 | 0.0 | 0.0 | 0.00 | 0.00 | 0.00 | 84 | 1013.2 |
| 20260830060520 | 72 | 354 | 0.9 | 0.9 | 0.00 | 0.00 | 0.00 | 84 | 1013.2 |
| 20260830060017 | 72 | 278 | 1.7 | 1.7 | 0.00 | 0.00 | 0.00 | 84 | 1013.2 |
| 20260830055512 | 72 | 348 | 0.0 | 0.9 | 0.00 | 0.00 | 0.00 | 84 | 1012.9 |
| 20260830055008 | 72 | 335 | 0.0 | 0.9 | 0.00 | 0.00 | 0.00 | 84 | 1013.2 |
| 20260830054503 | 72 | 329 | 0.9 | 0.9 | 0.00 | 0.00 | 0.00 | 84 | 1013.2 |
| 20260830053959 | 72 | 327 | 0.0 | 1.7 | 0.00 | 0.00 | 0.00 | 84 | 1013.2 |
| 20260830053454 | 72 | 327 | 0.0 | 0.9 | 0.00 | 0.00 | 0.00 | 84 | 1013.2 |
| 20260830052952 | 73 | 328 | 0.9 | 2.6 | 0.00 | 0.00 | 0.00 | 83 | 1013.2 |
| 20260830052448 | 73 | 309 | 0.9 | 0.9 | 0.00 | 0.00 | 0.00 | 82 | 1013.2 |
| 20260830051943 | 73 | 338 | 0.0 | 0.9 | 0.00 | 0.00 | 0.00 | 82 | 1013.2 |
| 20260830051438 | 73 | 261 | 0.0 | 0.9 | 0.00 | 0.00 | 0.00 | 80 | 1013.2 |
| 20260830050938 | 73 | 332 | 0.9 | 1.7 | 0.00 | 0.00 | 0.00 | 79 | 1013.2 |
| 20260830050434 | 73 | 302 | 0.9 | 0.9 | 0.00 | 0.00 | 0.00 | 79 | 1013.2 |
| 20260830045931 | 73 | 205 | 0.9 | 2.6 | 0.00 | 0.00 | 0.00 | 79 | 1013.2 |
| 20260830045427 | 73 | 329 | 0.9 | 2.6 | 0.00 | 0.00 | 0.00 | 79 | 1013.2 |
| 20260830044926 | 73 | 222 | 0.9 | 1.7 | 0.00 | 0.00 | 0.00 | 80 | 1013.6 |
| 20260830044422 | 73 | 341 | 0.0 | 0.9 | 0.00 | 0.00 | 0.00 | 79 | 1013.6 |
| 20260830043916 | 73 | 342 | 0.0 | 0.0 | 0.00 | 0.00 | 0.00 | 79 | 1013.2 |
| 20260830043411 | 73 | 344 | 0.0 | 0.0 | 0.00 | 0.00 | 0.00 | 79 | 1013.2 |
| 20260830042909 | 73 | 337 | 0.0 | 0.9 | 0.00 | 0.00 | 0.00 | 79 | 1013.2 |
| 20260830042358 | 73 | 343 | 0.0 | 0.0 | 0.00 | 0.00 | 0.00 | 79 | 1013.2 |
| 20260830041857 | 73 | 337 | 0.0 | 0.0 | 0.00 | 0.00 | 0.00 | 79 | 1012.9 |
| 20260830041356 | 73 | 319 | 0.9 | 0.9 | 0.00 | 0.00 | 0.00 | 79 | 1013.2 |
| 20260830040852 | 73 | 331 | 0.9 | 1.7 | 0.00 | 0.00 | 0.00 | 80 | 1013.2 |
| 20260830040348 | 74 | 311 | 0.0 | 0.9 | 0.00 | 0.00 | 0.00 | 81 | 1013.2 |
| 20260830035847 | 74 | 330 | 0.0 | 0.9 | 0.00 | 0.00 | 0.00 | 81 | 1012.9 |
| 20260830035345 | 74 | 305 | 0.9 | 0.9 | 0.00 | 0.00 | 0.00 | 80 | 1013.2 |
| 20260830034841 | 74 | 334 | 0.0 | 1.7 | 0.00 | 0.00 | 0.00 | 80 | 1013.2 |